Tracking 27422 objects as of 31-May-2023
HD Live streaming from Space Station
objects crossing your sky now

STARLINK-3919

Track STARLINK-3919 now!
10-day predictions
STARLINK-3919 is classified as:


NORAD ID: 52580
Int'l Code: 2022-051AW
Perigee: 546.3 km
Apogee: 547.4 km
Inclination: 53.2 °
Period: 95.4 minutes
Semi major axis: 6917 km
RCS: Unknown
Launch date: May 13, 2022
Source: United States (US)
Launch site: AIR FORCE WESTERN TEST RANGE (AFWTR)
Your satellite tracking list
Your tracking list is empty




NASA's NSSDC Master Catalog

Two Line Element Set (TLE):
1 52580U 22051AW  23150.85661809 -.00000515  00000-0 -14302-4 0  9991
2 52580  53.2184   5.4008 0000798  89.5490 270.5594 15.08841532 58328
Source of the keplerian elements: AFSPC